TimeCST,TemperatureF,Dew PointF,Humidity,Sea Level PressureIn,VisibilityMPH,Wind Direction,Wind SpeedMPH,Gust SpeedMPH,PrecipitationIn,Events,Conditions,WindDirDegrees,DateUTC
12:52 AM,27.0,25.0,92,29.96,10.0,SE,8.1,-,N/A,,Clear,140,2013-01-18 06:52:00
1:52 AM,27.0,23.0,85,29.94,10.0,SE,6.9,-,N/A,,Clear,140,2013-01-18 07:52:00
2:52 AM,27.0,23.0,85,29.91,10.0,ESE,6.9,-,N/A,,Clear,120,2013-01-18 08:52:00
3:52 AM,26.1,21.9,84,29.89,10.0,SSE,8.1,-,N/A,,Clear,150,2013-01-18 09:52:00
4:52 AM,27.0,21.9,81,29.86,10.0,SE,5.8,-,N/A,,Clear,130,2013-01-18 10:52:00
5:52 AM,30.9,21.9,69,29.83,10.0,West,9.2,-,N/A,,Clear,280,2013-01-18 11:52:00
6:52 AM,30.0,21.9,72,29.82,10.0,NNW,8.1,-,N/A,,Clear,340,2013-01-18 12:52:00
7:52 AM,32.0,21.9,66,29.83,10.0,NW,8.1,-,N/A,,Clear,310,2013-01-18 13:52:00
8:52 AM,30.9,23.0,72,29.84,10.0,WNW,5.8,-,N/A,,Clear,300,2013-01-18 14:52:00
9:52 AM,33.1,24.1,70,29.86,10.0,Calm,Calm,-,N/A,,Clear,0,2013-01-18 15:52:00
10:52 AM,39.9,28.0,63,29.85,10.0,WNW,5.8,-,N/A,,Clear,300,2013-01-18 16:52:00
11:52 AM,43.0,27.0,53,29.83,-9999.0,NNW,10.4,-,N/A,,Unknown,330,2013-01-18 17:52:00
12:52 PM,44.1,28.9,55,29.81,10.0,WNW,9.2,-,N/A,,Unknown,300,2013-01-18 18:52:00
1:52 PM,46.0,28.9,51,29.80,10.0,NNW,11.5,-,N/A,,Clear,340,2013-01-18 19:52:00
2:52 PM,45.0,30.0,56,29.79,10.0,NNW,8.1,-,N/A,,Clear,340,2013-01-18 20:52:00
3:52 PM,46.0,30.9,56,29.79,10.0,NW,6.9,-,N/A,,Clear,320,2013-01-18 21:52:00
4:52 PM,45.0,28.0,52,29.79,10.0,WSW,3.5,-,N/A,,Clear,240,2013-01-18 22:52:00
5:52 PM,39.9,28.9,65,29.79,10.0,Calm,Calm,-,N/A,,Clear,0,2013-01-18 23:52:00
6:52 PM,39.0,28.0,65,29.79,10.0,Calm,Calm,-,N/A,,Clear,0,2013-01-19 00:52:00
7:52 PM,39.0,28.9,67,29.78,10.0,South,3.5,-,N/A,,Clear,190,2013-01-19 01:52:00
8:52 PM,39.9,28.9,65,29.78,10.0,NNW,3.5,-,N/A,,Clear,330,2013-01-19 02:52:00
9:52 PM,37.0,28.0,70,29.77,10.0,NW,8.1,-,N/A,,Clear,310,2013-01-19 03:52:00
10:52 PM,37.9,27.0,65,29.76,10.0,NNW,9.2,-,N/A,,Clear,330,2013-01-19 04:52:00
11:52 PM,37.0,26.1,65,29.75,10.0,WNW,10.4,-,N/A,,Clear,300,2013-01-19 05:52:00